Time,TemperatureF,DewpointF,PressureIn,WindDirection,WindDirectionDegrees,WindSpeedMPH,WindSpeedGustMPH,Humidity,HourlyPrecipIn,Conditions,Clouds,dailyrainin,SoftwareType,DateUTC
2013-04-02 00:02:00,40.0,27.0,30.16,North,-999,-999.0,-999.0,59,-99.99,,,-99.99,,2013-04-02 05:02:00,
2013-04-02 00:12:00,40.0,27.0,30.16,North,-999,-999.0,-999.0,61,-99.99,,,-99.99,,2013-04-02 05:12:00,
2013-04-02 00:22:00,40.0,27.0,30.16,North,-999,-999.0,-999.0,61,-99.99,,,-99.99,,2013-04-02 05:22:00,
2013-04-02 00:32:00,40.0,26.0,30.16,North,-999,-999.0,-999.0,59,-99.99,,,-99.99,,2013-04-02 05:32:00,
2013-04-02 00:42:00,40.0,26.0,30.16,North,-999,-999.0,-999.0,58,-99.99,,,-99.99,,2013-04-02 05:42:00,
2013-04-02 00:52:00,40.0,26.0,30.16,North,-999,-999.0,-999.0,58,-99.99,,,-99.99,,2013-04-02 05:52:00,
2013-04-02 01:02:00,40.0,25.0,30.16,North,-999,-999.0,-999.0,56,-99.99,,,-99.99,,2013-04-02 06:02:00,
2013-04-02 01:12:00,39.0,26.0,30.17,North,-999,-999.0,-999.0,60,-99.99,,,-99.99,,2013-04-02 06:12:00,
2013-04-02 01:22:00,39.0,26.0,30.17,North,-999,-999.0,-999.0,60,-99.99,,,-99.99,,2013-04-02 06:22:00,
2013-04-02 01:32:00,39.0,25.0,30.17,North,-999,-999.0,-999.0,58,-99.99,,,-99.99,,2013-04-02 06:32:00,
2013-04-02 01:42:00,39.0,25.0,30.18,North,-999,-999.0,-999.0,57,-99.99,,,-99.99,,2013-04-02 06:42:00,
2013-04-02 01:52:00,39.0,25.0,30.18,North,-999,-999.0,-999.0,57,-99.99,,,-99.99,,2013-04-02 06:52:00,
2013-04-02 02:02:00,39.0,25.0,30.18,North,-999,-999.0,-999.0,57,-99.99,,,-99.99,,2013-04-02 07:02:00,
2013-04-02 02:12:00,39.0,25.0,30.18,North,-999,-999.0,-999.0,56,-99.99,,,-99.99,,2013-04-02 07:12:00,
2013-04-02 02:22:00,39.0,25.0,30.18,North,-999,-999.0,-999.0,56,-99.99,,,-99.99,,2013-04-02 07:22:00,
2013-04-02 02:32:00,39.0,24.0,30.18,North,-999,-999.0,-999.0,55,-99.99,,,-99.99,,2013-04-02 07:32:00,
2013-04-02 02:42:00,39.0,25.0,30.19,North,-999,-999.0,-999.0,56,-99.99,,,-99.99,,2013-04-02 07:42:00,
2013-04-02 02:52:00,39.0,25.0,30.19,North,-999,-999.0,-999.0,56,-99.99,,,-99.99,,2013-04-02 07:52:00,
2013-04-02 03:02:00,39.0,25.0,30.19,North,-999,-999.0,-999.0,57,-99.99,,,-99.99,,2013-04-02 08:02:00,
2013-04-02 03:13:00,39.0,25.0,30.19,North,-999,-999.0,-999.0,57,-99.99,,,-99.99,,2013-04-02 08:13:00,
2013-04-02 03:22:00,39.0,25.0,30.19,North,-999,-999.0,-999.0,57,-99.99,,,-99.99,,2013-04-02 08:22:00,
2013-04-02 03:32:00,39.0,25.0,30.20,North,-999,-999.0,-999.0,57,-99.99,,,-99.99,,2013-04-02 08:32:00,
2013-04-02 03:42:00,39.0,24.0,30.20,North,-999,-999.0,-999.0,55,-99.99,,,-99.99,,2013-04-02 08:42:00,
2013-04-02 03:52:00,39.0,24.0,30.20,North,-999,-999.0,-999.0,55,-99.99,,,-99.99,,2013-04-02 08:52:00,
2013-04-02 04:02:00,39.0,25.0,30.22,North,-999,-999.0,-999.0,56,-99.99,,,-99.99,,2013-04-02 09:02:00,
2013-04-02 04:12:00,39.0,25.0,30.22,North,-999,-999.0,-999.0,56,-99.99,,,-99.99,,2013-04-02 09:12:00,
2013-04-02 04:22:00,39.0,25.0,30.22,North,-999,-999.0,-999.0,56,-99.99,,,-99.99,,2013-04-02 09:22:00,
2013-04-02 04:32:00,38.0,24.0,30.20,North,-999,-999.0,-999.0,55,-99.99,,,-99.99,,2013-04-02 09:32:00,
2013-04-02 04:43:00,38.0,25.0,30.19,North,-999,-999.0,-999.0,59,-99.99,,,-99.99,,2013-04-02 09:43:00,
2013-04-02 04:52:00,38.0,25.0,30.19,North,-999,-999.0,-999.0,59,-99.99,,,-99.99,,2013-04-02 09:52:00,
2013-04-02 05:03:00,36.0,27.0,30.17,North,-999,-999.0,-999.0,67,-99.99,,,-99.99,,2013-04-02 10:03:00,
2013-04-02 05:13:00,36.0,27.0,30.18,North,-999,-999.0,-999.0,69,-99.99,,,-99.99,,2013-04-02 10:13:00,
2013-04-02 05:23:00,36.0,27.0,30.18,North,-999,-999.0,-999.0,69,-99.99,,,-99.99,,2013-04-02 10:23:00,
2013-04-02 05:33:00,36.0,29.0,30.19,North,-999,-999.0,-999.0,76,-99.99,,,-99.99,,2013-04-02 10:33:00,
2013-04-02 05:42:00,36.0,29.0,30.19,North,-999,-999.0,-999.0,76,-99.99,,,-99.99,,2013-04-02 10:42:00,
2013-04-02 05:52:00,36.0,29.0,30.19,North,-999,-999.0,-999.0,76,-99.99,,,-99.99,,2013-04-02 10:52:00,
2013-04-02 06:02:00,36.0,29.0,30.18,North,-999,-999.0,-999.0,75,-99.99,,,-99.99,,2013-04-02 11:02:00,
2013-04-02 06:12:00,36.0,29.0,30.18,North,-999,-999.0,-999.0,77,-99.99,,,-99.99,,2013-04-02 11:12:00,
2013-04-02 06:22:00,36.0,29.0,30.18,North,-999,-999.0,-999.0,77,-99.99,,,-99.99,,2013-04-02 11:22:00,
2013-04-02 06:33:00,36.0,29.0,30.19,North,-999,-999.0,-999.0,76,-99.99,,,-99.99,,2013-04-02 11:33:00,
2013-04-02 06:43:00,36.0,29.0,30.19,North,-999,-999.0,-999.0,76,-99.99,,,-99.99,,2013-04-02 11:43:00,
2013-04-02 06:52:00,36.0,29.0,30.19,North,-999,-999.0,-999.0,76,-99.99,,,-99.99,,2013-04-02 11:52:00,
2013-04-02 07:02:00,36.0,29.0,30.20,North,-999,-999.0,-999.0,76,-99.99,,,-99.99,,2013-04-02 12:02:00,
2013-04-02 07:12:00,36.0,29.0,30.20,North,-999,-999.0,-999.0,77,-99.99,,,-99.99,,2013-04-02 12:12:00,
2013-04-02 07:22:00,36.0,29.0,30.20,North,-999,-999.0,-999.0,77,-99.99,,,-99.99,,2013-04-02 12:22:00,
2013-04-02 07:32:00,36.0,29.0,30.22,North,-999,-999.0,-999.0,77,-99.99,,,-99.99,,2013-04-02 12:32:00,
2013-04-02 07:42:00,36.0,29.0,30.22,North,-999,-999.0,-999.0,78,-99.99,,,-99.99,,2013-04-02 12:42:00,
2013-04-02 07:52:00,36.0,29.0,30.22,North,-999,-999.0,-999.0,78,-99.99,,,-99.99,,2013-04-02 12:52:00,
2013-04-02 08:00:00,34.0,28.0,30.24,North,-999,-999.0,-999.0,77,-99.99,,,-99.99,,2013-04-02 13:00:00,
2013-04-02 08:02:00,35.0,30.0,30.24,North,-999,-999.0,-999.0,81,-99.99,,,-99.99,,2013-04-02 13:02:00,
2013-04-02 08:12:00,35.0,29.0,30.23,North,-999,-999.0,-999.0,80,-99.99,,,-99.99,,2013-04-02 13:12:00,
2013-04-02 08:22:00,35.0,29.0,30.23,North,-999,-999.0,-999.0,80,-99.99,,,-99.99,,2013-04-02 13:22:00,
2013-04-02 08:33:00,34.0,28.0,30.22,North,-999,-999.0,-999.0,77,-99.99,,,-99.99,,2013-04-02 13:33:00,
2013-04-02 08:42:00,34.0,28.0,30.24,North,-999,-999.0,-999.0,77,-99.99,,,-99.99,,2013-04-02 13:42:00,
2013-04-02 08:52:00,34.0,28.0,30.24,North,-999,-999.0,-999.0,77,-99.99,,,-99.99,,2013-04-02 13:52:00,
2013-04-02 09:12:00,34.0,27.0,30.23,North,-999,-999.0,-999.0,76,-99.99,,,-99.99,,2013-04-02 14:12:00,
2013-04-02 09:23:00,34.0,27.0,30.23,North,-999,-999.0,-999.0,76,-99.99,,,-99.99,,2013-04-02 14:23:00,
2013-04-02 09:32:00,33.0,27.0,30.24,North,-999,-999.0,-999.0,79,-99.99,,,-99.99,,2013-04-02 14:32:00,
2013-04-02 09:42:00,34.0,28.0,30.23,North,-999,-999.0,-999.0,80,-99.99,,,-99.99,,2013-04-02 14:42:00,
2013-04-02 09:52:00,34.0,28.0,30.23,North,-999,-999.0,-999.0,80,-99.99,,,-99.99,,2013-04-02 14:52:00,
2013-04-02 10:00:00,34.0,29.0,30.25,North,-999,-999.0,-999.0,81,-99.99,,,-99.99,,2013-04-02 15:00:00,
2013-04-02 10:02:00,34.0,29.0,30.22,North,-999,-999.0,-999.0,81,-99.99,,,-99.99,,2013-04-02 15:02:00,
2013-04-02 10:11:00,34.0,28.0,30.24,North,-999,-999.0,-999.0,80,-99.99,,,-99.99,,2013-04-02 15:11:00,
2013-04-02 10:22:00,34.0,28.0,30.24,North,-999,-999.0,-999.0,80,-99.99,,,-99.99,,2013-04-02 15:22:00,
2013-04-02 10:33:00,35.0,29.0,30.24,North,-999,-999.0,-999.0,81,-99.99,,,-99.99,,2013-04-02 15:33:00,
2013-04-02 10:43:00,34.0,29.0,30.25,North,-999,-999.0,-999.0,81,-99.99,,,-99.99,,2013-04-02 15:43:00,
2013-04-02 10:55:00,34.0,29.0,30.25,North,-999,-999.0,-999.0,81,-99.99,,,-99.99,,2013-04-02 15:55:00,
2013-04-02 11:13:00,35.0,29.0,30.24,North,-999,-999.0,-999.0,79,-99.99,,,-99.99,,2013-04-02 16:13:00,
2013-04-02 11:24:00,35.0,29.0,30.24,North,-999,-999.0,-999.0,79,-99.99,,,-99.99,,2013-04-02 16:24:00,
2013-04-02 11:36:00,35.0,28.0,30.24,North,-999,-999.0,-999.0,76,-99.99,,,-99.99,,2013-04-02 16:36:00,
2013-04-02 11:44:00,36.0,29.0,30.24,North,-999,-999.0,-999.0,76,-99.99,,,-99.99,,2013-04-02 16:44:00,
2013-04-02 11:53:00,36.0,29.0,30.24,North,-999,-999.0,-999.0,76,-99.99,,,-99.99,,2013-04-02 16:53:00,
2013-04-02 12:05:00,36.0,29.0,30.24,North,-999,-999.0,-999.0,76,-99.99,,,-99.99,,2013-04-02 17:05:00,
2013-04-02 12:13:00,36.0,29.0,30.24,North,-999,-999.0,-999.0,75,-99.99,,,-99.99,,2013-04-02 17:13:00,
2013-04-02 12:24:00,36.0,29.0,30.24,North,-999,-999.0,-999.0,75,-99.99,,,-99.99,,2013-04-02 17:24:00,
2013-04-02 12:34:00,36.0,29.0,30.24,North,-999,-999.0,-999.0,75,-99.99,,,-99.99,,2013-04-02 17:34:00,
2013-04-02 12:43:00,36.0,29.0,30.24,North,-999,-999.0,-999.0,74,-99.99,,,-99.99,,2013-04-02 17:43:00,
2013-04-02 12:54:00,36.0,29.0,30.24,North,-999,-999.0,-999.0,74,-99.99,,,-99.99,,2013-04-02 17:54:00,
2013-04-02 13:03:00,36.0,28.0,30.24,North,-999,-999.0,-999.0,72,-99.99,,,-99.99,,2013-04-02 18:03:00,
2013-04-02 13:12:00,37.0,29.0,30.23,North,-999,-999.0,-999.0,74,-99.99,,,-99.99,,2013-04-02 18:12:00,
2013-04-02 13:23:00,37.0,29.0,30.23,North,-999,-999.0,-999.0,74,-99.99,,,-99.99,,2013-04-02 18:23:00,
2013-04-02 13:34:00,37.0,28.0,30.23,North,-999,-999.0,-999.0,71,-99.99,,,-99.99,,2013-04-02 18:34:00,
2013-04-02 13:43:00,37.0,30.0,30.24,North,-999,-999.0,-999.0,74,-99.99,,,-99.99,,2013-04-02 18:43:00,
2013-04-02 13:54:00,37.0,30.0,30.24,North,-999,-999.0,-999.0,74,-99.99,,,-99.99,,2013-04-02 18:54:00,
2013-04-02 14:03:00,37.0,30.0,30.24,North,-999,-999.0,-999.0,75,-99.99,,,-99.99,,2013-04-02 19:03:00,
2013-04-02 14:13:00,38.0,31.0,30.24,North,-999,-999.0,-999.0,76,-99.99,,,-99.99,,2013-04-02 19:13:00,
2013-04-02 14:23:00,38.0,31.0,30.24,North,-999,-999.0,-999.0,76,-99.99,,,-99.99,,2013-04-02 19:23:00,
2013-04-02 14:34:00,37.0,30.0,30.23,North,-999,-999.0,-999.0,75,-99.99,,,-99.99,,2013-04-02 19:34:00,
2013-04-02 14:45:00,37.0,30.0,30.22,North,-999,-999.0,-999.0,74,-99.99,,,-99.99,,2013-04-02 19:45:00,
2013-04-02 14:53:00,37.0,30.0,30.22,North,-999,-999.0,-999.0,74,-99.99,,,-99.99,,2013-04-02 19:53:00,
2013-04-02 15:03:00,38.0,30.0,30.22,North,-999,-999.0,-999.0,74,-99.99,,,-99.99,,2013-04-02 20:03:00,
2013-04-02 15:13:00,38.0,31.0,30.22,North,-999,-999.0,-999.0,73,-99.99,,,-99.99,,2013-04-02 20:13:00,
2013-04-02 15:22:00,38.0,31.0,30.22,North,-999,-999.0,-999.0,73,-99.99,,,-99.99,,2013-04-02 20:22:00,
2013-04-02 15:30:00,39.0,30.0,30.21,North,-999,-999.0,-999.0,69,-99.99,,,-99.99,,2013-04-02 20:30:00,
2013-04-02 15:33:00,38.0,30.0,30.22,North,-999,-999.0,-999.0,71,-99.99,,,-99.99,,2013-04-02 20:33:00,
2013-04-02 15:44:00,39.0,30.0,30.21,North,-999,-999.0,-999.0,71,-99.99,,,-99.99,,2013-04-02 20:44:00,
2013-04-02 15:53:00,39.0,30.0,30.21,North,-999,-999.0,-999.0,71,-99.99,,,-99.99,,2013-04-02 20:53:00,
2013-04-02 16:04:00,40.0,31.0,30.22,North,-999,-999.0,-999.0,72,-99.99,,,-99.99,,2013-04-02 21:04:00,
2013-04-02 16:13:00,39.0,30.0,30.21,North,-999,-999.0,-999.0,69,-99.99,,,-99.99,,2013-04-02 21:13:00,
2013-04-02 16:23:00,39.0,30.0,30.21,North,-999,-999.0,-999.0,69,-99.99,,,-99.99,,2013-04-02 21:23:00,
2013-04-02 16:44:00,39.0,29.0,30.21,North,-999,-999.0,-999.0,65,-99.99,,,-99.99,,2013-04-02 21:44:00,
2013-04-02 16:55:00,39.0,29.0,30.21,North,-999,-999.0,-999.0,65,-99.99,,,-99.99,,2013-04-02 21:55:00,
2013-04-02 17:04:00,40.0,30.0,30.21,North,-999,-999.0,-999.0,67,-99.99,,,-99.99,,2013-04-02 22:04:00,
2013-04-02 17:14:00,40.0,29.0,30.21,North,-999,-999.0,-999.0,65,-99.99,,,-99.99,,2013-04-02 22:14:00,
2013-04-02 17:24:00,40.0,29.0,30.21,North,-999,-999.0,-999.0,65,-99.99,,,-99.99,,2013-04-02 22:24:00,
2013-04-02 17:33:00,40.0,29.0,30.20,North,-999,-999.0,-999.0,64,-99.99,,,-99.99,,2013-04-02 22:33:00,
2013-04-02 17:43:00,40.0,30.0,30.20,North,-999,-999.0,-999.0,67,-99.99,,,-99.99,,2013-04-02 22:43:00,
2013-04-02 17:53:00,40.0,30.0,30.20,North,-999,-999.0,-999.0,67,-99.99,,,-99.99,,2013-04-02 22:53:00,
2013-04-02 18:03:00,40.0,28.0,30.20,North,-999,-999.0,-999.0,61,-99.99,,,-99.99,,2013-04-02 23:03:00,
2013-04-02 18:13:00,40.0,29.0,30.20,North,-999,-999.0,-999.0,64,-99.99,,,-99.99,,2013-04-02 23:13:00,
2013-04-02 18:23:00,40.0,29.0,30.20,North,-999,-999.0,-999.0,64,-99.99,,,-99.99,,2013-04-02 23:23:00,
2013-04-02 18:35:00,40.0,27.0,30.20,North,-999,-999.0,-999.0,59,-99.99,,,-99.99,,2013-04-02 23:35:00,
2013-04-02 18:43:00,40.0,27.0,30.19,North,-999,-999.0,-999.0,59,-99.99,,,-99.99,,2013-04-02 23:43:00,
2013-04-02 18:52:00,40.0,27.0,30.19,North,-999,-999.0,-999.0,59,-99.99,,,-99.99,,2013-04-02 23:52:00,
2013-04-02 19:04:00,40.0,26.0,30.19,North,-999,-999.0,-999.0,57,-99.99,,,-99.99,,2013-04-03 00:04:00,
2013-04-02 19:13:00,40.0,27.0,30.19,North,-999,-999.0,-999.0,59,-99.99,,,-99.99,,2013-04-03 00:13:00,
2013-04-02 19:24:00,40.0,27.0,30.19,North,-999,-999.0,-999.0,59,-99.99,,,-99.99,,2013-04-03 00:24:00,
2013-04-02 19:33:00,40.0,27.0,30.19,North,-999,-999.0,-999.0,59,-99.99,,,-99.99,,2013-04-03 00:33:00,
2013-04-02 19:46:00,40.0,27.0,30.19,North,-999,-999.0,-999.0,58,-99.99,,,-99.99,,2013-04-03 00:46:00,
2013-04-02 19:53:00,40.0,27.0,30.19,North,-999,-999.0,-999.0,58,-99.99,,,-99.99,,2013-04-03 00:53:00,
2013-04-02 20:03:00,40.0,27.0,30.19,North,-999,-999.0,-999.0,60,-99.99,,,-99.99,,2013-04-03 01:03:00,
2013-04-02 20:12:00,40.0,26.0,30.19,North,-999,-999.0,-999.0,58,-99.99,,,-99.99,,2013-04-03 01:12:00,
2013-04-02 20:22:00,40.0,26.0,30.19,North,-999,-999.0,-999.0,58,-99.99,,,-99.99,,2013-04-03 01:22:00,
2013-04-02 20:33:00,40.0,27.0,30.19,North,-999,-999.0,-999.0,61,-99.99,,,-99.99,,2013-04-03 01:33:00,
2013-04-02 20:42:00,40.0,27.0,30.19,North,-999,-999.0,-999.0,61,-99.99,,,-99.99,,2013-04-03 01:42:00,
2013-04-02 20:53:00,40.0,27.0,30.19,North,-999,-999.0,-999.0,61,-99.99,,,-99.99,,2013-04-03 01:53:00,
2013-04-02 21:03:00,40.0,27.0,30.19,North,-999,-999.0,-999.0,60,-99.99,,,-99.99,,2013-04-03 02:03:00,
2013-04-02 21:13:00,40.0,27.0,30.19,North,-999,-999.0,-999.0,61,-99.99,,,-99.99,,2013-04-03 02:13:00,
2013-04-02 21:34:00,40.0,27.0,30.19,North,-999,-999.0,-999.0,61,-99.99,,,-99.99,,2013-04-03 02:34:00,
2013-04-02 21:43:00,39.0,28.0,30.19,North,-999,-999.0,-999.0,63,-99.99,,,-99.99,,2013-04-03 02:43:00,
2013-04-02 21:52:00,39.0,28.0,30.19,North,-999,-999.0,-999.0,63,-99.99,,,-99.99,,2013-04-03 02:52:00,
2013-04-02 22:05:00,39.0,27.0,30.20,North,-999,-999.0,-999.0,63,-99.99,,,-99.99,,2013-04-03 03:05:00,
2013-04-02 22:14:00,39.0,28.0,30.19,North,-999,-999.0,-999.0,65,-99.99,,,-99.99,,2013-04-03 03:14:00,
2013-04-02 22:23:00,39.0,28.0,30.19,North,-999,-999.0,-999.0,65,-99.99,,,-99.99,,2013-04-03 03:23:00,
2013-04-02 22:37:00,39.0,27.0,30.19,North,-999,-999.0,-999.0,63,-99.99,,,-99.99,,2013-04-03 03:37:00,
2013-04-02 22:43:00,39.0,27.0,30.20,North,-999,-999.0,-999.0,62,-99.99,,,-99.99,,2013-04-03 03:43:00,
2013-04-02 22:53:00,39.0,27.0,30.20,North,-999,-999.0,-999.0,62,-99.99,,,-99.99,,2013-04-03 03:53:00,
2013-04-02 23:03:00,38.0,30.0,30.20,North,-999,-999.0,-999.0,71,-99.99,,,-99.99,,2013-04-03 04:03:00,
2013-04-02 23:12:00,38.0,30.0,30.21,North,-999,-999.0,-999.0,72,-99.99,,,-99.99,,2013-04-03 04:12:00,
2013-04-02 23:23:00,38.0,30.0,30.21,North,-999,-999.0,-999.0,72,-99.99,,,-99.99,,2013-04-03 04:23:00,
2013-04-02 23:33:00,38.0,30.0,30.21,North,-999,-999.0,-999.0,73,-99.99,,,-99.99,,2013-04-03 04:33:00,
2013-04-02 23:43:00,38.0,30.0,30.20,North,-999,-999.0,-999.0,74,-99.99,,,-99.99,,2013-04-03 04:43:00,
2013-04-02 23:53:00,38.0,30.0,30.20,North,-999,-999.0,-999.0,74,-99.99,,,-99.99,,2013-04-03 04:53:00,